Погода в Остенде

Бельгия     51°13′40″N   2°55′00″E
темп.,
°C
ветер,
м/с
пор.,
м/с
влажн.,
%
обл.,
%
осадки,
мм/ч
давл.,
гПа
погр.,
м
14 мая, пт
пт1423:00+9ссз00915 0.0 100770
02:00+9ю11885 0.0 100746
05:00+8юв22855 0.0 100653
08:00+9ююв22815 0.0 1007110
11:00+12с217555 0.3 1008300
14:00+12ссв557533 1.6 1008412
17:00+12ссв65815 0.3 1008424
20:00+11ссв55835 0.3 1008318
15 мая, сб
сб1523:00+9с44875 0.0 1008203
02:00+9ссв1186100 0.0 1007133
05:00+7ююз3492100 0.0 1005124
08:00+8ю4689100 0.0 1005241
11:00+10ююз5888100 0.3 1003551
14:00+9ююз6886100 1.0 1003683
17:00+10ю6789100 0.3 1001633
20:00+11зюз710865 1.1 1001640
16 мая, вс
вс1623:00+9ююз612905 0.1 1002402
02:00+8юз71292100 0.1 1001397
05:00+8ююз61294100 0.0 1001355
08:00+9юз71292100 0.0 1001557
11:00+10ююз81287100 1.8 1001789
14:00+12юз81284100 3.9 10001085
17:00+13юз8117782 3.9 999919
20:00+12юз8128672 5.6 998741
17 мая, пн
пн1723:00+11юз101487100 0.3 998970
02:00+11зюз12169085 0.7 998770
05:00+11зюз91192100 0.9 999565
08:00+10зюз91193100 1.4 1002637
11:00+11зюз8990100 0.2 1004648
14:00+12з688254 0.3 1005611
17:00+12з91181100 0.5 1005738
20:00+11зюз71089100 1.9 1006478
18 мая, вт
вт1823:00+11з101387100 0.8 1008520
02:00+10з1012885 2.3 1010557
05:00+9зюз912869 0.4 1012545
08:00+10зюз9118513 0.4 1013663
11:00+11зюз9117669 0.0 1015906
14:00+12зюз1012729 0.0 10151161
17:00+10юз81391100 0.9 1014942
20:00+11юз101684100 2.6 10131241